Location: 100m Effelsberg RT
(50.5249°N, 6.8827°E)
Time: 22:49:55
(UTC+02:00)

AQUARIUS - Visible Passes

Search period start: 22 October 2021 00:00
Search period end: 31 October 2021 23:00
Orbit: 650 x 652 km, 98.0° (Epoch: 22 October)

Date Brightness Start Highest point End Pass type
(mag) Time Alt. Az. Time Alt. Az. Time Alt. Az.
22 Oct 7.6 06:45:05 10° NE 06:47:36 15° E 06:50:06 10° ESE visible
22 Oct 5.3 19:23:54 10° S 19:28:14 48° W 19:32:37 10° NNW visible
23 Oct 6.8 07:10:59 10° NE 07:14:43 25° E 07:18:25 10° SSE visible
23 Oct 6.5 19:51:23 10° SSW 19:55:13 27° W 19:59:06 10° NW visible
24 Oct 7.3 20:19:31 10° SW 20:22:19 16° W 20:25:08 10° NW visible
25 Oct 8.0 06:30:37 10° ENE 06:31:06 10° E 06:31:34 10° E visible
25 Oct 4.6 19:07:27 10° S 19:11:55 68° WSW 19:16:26 10° NNW visible
26 Oct 7.4 06:55:10 10° NE 06:58:17 18° E 07:01:22 10° SE visible
26 Oct 5.8 19:34:39 10° SSW 19:38:50 38° W 19:43:03 10° NNW visible
27 Oct 6.4 07:21:20 10° NNE 07:25:21 31° E 07:29:20 10° SSE visible
27 Oct 6.8 20:02:20 10° SW 20:05:52 22° W 20:09:25 10° NW visible
28 Oct 4.2 18:51:09 10° SSE 18:55:38 86° ENE 19:00:09 10° NNW visible
28 Oct 7.6 20:30:56 10° WSW 20:33:00 13° W 20:35:05 10° WNW visible
29 Oct 7.6 06:39:43 10° ENE 06:41:48 13° E 06:43:52 10° ESE visible
29 Oct 5.0 19:18:06 10° S 19:22:30 54° W 19:26:55 10° NNW visible
30 Oct 7.0 07:05:23 10° NE 07:08:56 22° E 07:12:27 10° SE visible
30 Oct 6.2 19:45:28 10° SSW 19:49:27 31° W 19:53:28 10° NNW visible
31 Oct 5.9 06:31:44 10° NNE 06:35:58 38° E 06:40:09 10° SSE visible
31 Oct 4.2 17:34:58 10° SSE 17:39:23 61° ENE 17:43:50 10° N visible
31 Oct 7.1 19:13:25 10° SW 19:16:31 18° W 19:19:38 10° NW visible
